owner,sensor,date,latitude,longitude,vertical_datum,wind_speed,wind_to_direction,wind_speed_of_gust,qcFlag 
TCOON,ioos:station:TCOON:057:1,2017-01-01T00:06:00Z,28.4460,-96.3961,0.0,1.6,202.0,1.9,'11111222,11111222,11111222' 
TCOON,ioos:station:TCOON:057:1,2017-01-01T00:12:00Z,28.4460,-96.3961,0.0,1.7,200.0,2.1,'11111222,11111222,11111222' 
TCOON,ioos:station:TCOON:057:1,2017-01-01T00:18:00Z,28.4460,-96.3961,0.0,1.3,223.0,2.0,'11111222,11111222,11111222' 
TCOON,ioos:station:TCOON:057:1,2017-01-01T00:24:00Z,28.4460,-96.3961,0.0,1.3,223.0,2.0,'1111122,1111122,1111122' 
TCOON,ioos:station:TCOON:057:1,2017-01-01T00:30:00Z,28.4460,-96.3961,0.0,1.3,245.0,1.5,'11111222,11111222,11111222' 
TCOON,ioos:station:TCOON:057:1,2017-01-01T00:36:00Z,28.4460,-96.3961,0.0,1.2,244.0,1.5,'11111222,11111222,11111222' 
TCOON,ioos:station:TCOON:057:1,2017-01-01T00:42:00Z,28.4460,-96.3961,0.0,0.9,226.0,1.3,'11111222,11111222,11111222' 
TCOON,ioos:station:TCOON:057:1,2017-01-01T00:48:00Z,28.4460,-96.3961,0.0,0.8,219.0,1.1,'11111222,11111222,11111222' 
TCOON,ioos:station:TCOON:057:1,2017-01-01T00:54:00Z,28.4460,-96.3961,0.0,0.7,210.0,1.0,'11111222,11111222,11111222' 
TCOON,ioos:station:TCOON:057:1,2017-01-01T01:00:00Z,28.4460,-96.3961,0.0,1.0,208.0,1.1,'11111222,11111222,11111222' 
TCOON,ioos:station:TCOON:057:1,2017-01-01T01:06:00Z,28.4460,-96.3961,0.0,0.9,209.0,1.1,'11111222,11111222,11111222' 
TCOON,ioos:station:TCOON:057:1,2017-01-01T01:12:00Z,28.4460,-96.3961,0.0,1.2,185.0,1.3,'11111222,11111222,11111222' 
TCOON,ioos:station:TCOON:057:1,2017-01-01T01:18:00Z,28.4460,-96.3961,0.0,1.2,185.0,1.3,'1111122,1111122,1111122' 
TCOON,ioos:station:TCOON:057:1,2017-01-01T01:24:00Z,28.4460,-96.3961,0.0,1.6,157.0,1.8,'11111222,11111222,11111222' 
TCOON,ioos:station:TCOON:057:1,2017-01-01T01:30:00Z,28.4460,-96.3961,0.0,1.1,171.0,1.4,'11111222,11111222,11111222' 
TCOON,ioos:station:TCOON:057:1,2017-01-01T01:36:00Z,28.4460,-96.3961,0.0,0.8,188.0,1.2,'11111222,11111222,11111222' 
TCOON,ioos:station:TCOON:057:1,2017-01-01T01:42:00Z,28.4460,-96.3961,0.0,1.3,153.0,1.4,'11111222,11111222,11111222' 
TCOON,ioos:station:TCOON:057:1,2017-01-01T01:48:00Z,28.4460,-96.3961,0.0,1.2,144.0,1.4,'11111222,11111222,11111222' 
TCOON,ioos:station:TCOON:057:1,2017-01-01T01:54:00Z,28.4460,-96.3961,0.0,1.3,139.0,1.4,'11111222,11111222,11111222' 
TCOON,ioos:station:TCOON:057:1,2017-01-01T02:00:00Z,28.4460,-96.3961,0.0,1.8,152.0,1.9,'11111222,11111222,11111222' 
TCOON,ioos:station:TCOON:057:1,2017-01-01T02:06:00Z,28.4460,-96.3961,0.0,0.4,176.0,1.7,'11111222,11111222,11111222' 
TCOON,ioos:station:TCOON:057:1,2017-01-01T02:12:00Z,28.4460,-96.3961,0.0,0.5,231.0,0.9,'11111222,11111222,11111222' 
TCOON,ioos:station:TCOON:057:1,2017-01-01T02:18:00Z,28.4460,-96.3961,0.0,0.5,231.0,0.9,'1111122,1111122,1111122' 
TCOON,ioos:station:TCOON:057:1,2017-01-01T02:24:00Z,28.4460,-96.3961,0.0,0.9,232.0,1.3,'11111222,11111222,11111222' 
TCOON,ioos:station:TCOON:057:1,2017-01-01T02:30:00Z,28.4460,-96.3961,0.0,1.1,197.0,1.5,'11111222,11111222,11111222' 
TCOON,ioos:station:TCOON:057:1,2017-01-01T02:36:00Z,28.4460,-96.3961,0.0,1.1,192.0,1.5,'11111222,11111222,11111222' 
TCOON,ioos:station:TCOON:057:1,2017-01-01T02:42:00Z,28.4460,-96.3961,0.0,1.5,189.0,1.8,'11111222,11111222,11111222' 
TCOON,ioos:station:TCOON:057:1,2017-01-01T02:48:00Z,28.4460,-96.3961,0.0,1.3,187.0,2.0,'11111222,11111222,11111222' 
TCOON,ioos:station:TCOON:057:1,2017-01-01T02:54:00Z,28.4460,-96.3961,0.0,0.8,184.0,1.4,'11111222,11111222,11111222' 
TCOON,ioos:station:TCOON:057:1,2017-01-01T03:00:00Z,28.4460,-96.3961,0.0,1.2,171.0,1.5,'11111222,11111222,11111222' 
TCOON,ioos:station:TCOON:057:1,2017-01-01T03:06:00Z,28.4460,-96.3961,0.0,1.7,165.0,2.2,'11111222,11111222,11111222' 
TCOON,ioos:station:TCOON:057:1,2017-01-01T03:12:00Z,28.4460,-96.3961,0.0,2.1,154.0,2.4,'11111222,11111222,11111222' 
TCOON,ioos:station:TCOON:057:1,2017-01-01T03:18:00Z,28.4460,-96.3961,0.0,2.1,154.0,2.4,'1111122,1111122,1111122' 
TCOON,ioos:station:TCOON:057:1,2017-01-01T03:24:00Z,28.4460,-96.3961,0.0,1.7,155.0,2.0,'11111222,11111222,11111222' 
TCOON,ioos:station:TCOON:057:1,2017-01-01T03:30:00Z,28.4460,-96.3961,0.0,1.3,176.0,1.8,'11111222,11111222,11111222' 
TCOON,ioos:station:TCOON:057:1,2017-01-01T03:36:00Z,28.4460,-96.3961,0.0,1.7,167.0,1.9,'11111222,11111222,11111222' 
TCOON,ioos:station:TCOON:057:1,2017-01-01T03:42:00Z,28.4460,-96.3961,0.0,1.8,167.0,2.0,'11111222,11111222,11111222' 
TCOON,ioos:station:TCOON:057:1,2017-01-01T03:48:00Z,28.4460,-96.3961,0.0,1.8,160.0,2.1,'11111222,11111222,11111222' 
TCOON,ioos:station:TCOON:057:1,2017-01-01T03:54:00Z,28.4460,-96.3961,0.0,1.9,151.0,2.2,'11111222,11111222,11111222' 
TCOON,ioos:station:TCOON:057:1,2017-01-01T04:00:00Z,28.4460,-96.3961,0.0,2.2,148.0,2.4,'11111222,11111222,11111222' 
TCOON,ioos:station:TCOON:057:1,2017-01-01T04:06:00Z,28.4460,-96.3961,0.0,1.7,154.0,2.2,'11111222,11111222,11111222' 
TCOON,ioos:station:TCOON:057:1,2017-01-01T04:12:00Z,28.4460,-96.3961,0.0,1.3,154.0,2.0,'11111222,11111222,11111222' 
TCOON,ioos:station:TCOON:057:1,2017-01-01T04:18:00Z,28.4460,-96.3961,0.0,2.0,142.0,2.1,'11111222,11111222,11111222' 
TCOON,ioos:station:TCOON:057:1,2017-01-01T04:24:00Z,28.4460,-96.3961,0.0,3.0,148.0,3.3,'11111222,11111222,11111222' 
TCOON,ioos:station:TCOON:057:1,2017-01-01T04:30:00Z,28.4460,-96.3961,0.0,3.0,148.0,3.3,'1111122,1111122,1111122' 
TCOON,ioos:station:TCOON:057:1,2017-01-01T04:36:00Z,28.4460,-96.3961,0.0,1.8,145.0,2.3,'11111222,11111222,11111222' 
TCOON,ioos:station:TCOON:057:1,2017-01-01T04:42:00Z,28.4460,-96.3961,0.0,2.4,150.0,2.6,'11111222,11111222,11111222' 
TCOON,ioos:station:TCOON:057:1,2017-01-01T04:48:00Z,28.4460,-96.3961,0.0,1.6,138.0,2.6,'11111222,11111222,11111222' 
TCOON,ioos:station:TCOON:057:1,2017-01-01T04:54:00Z,28.4460,-96.3961,0.0,2.0,148.0,2.2,'11111222,11111222,11111222' 
TCOON,ioos:station:TCOON:057:1,2017-01-01T05:00:00Z,28.4460,-96.3961,0.0,1.4,153.0,2.2,'11111222,11111222,11111222' 
TCOON,ioos:station:TCOON:057:1,2017-01-01T05:06:00Z,28.4460,-96.3961,0.0,1.5,153.0,1.5,'11111222,11111222,11111222' 
TCOON,ioos:station:TCOON:057:1,2017-01-01T05:12:00Z,28.4460,-96.3961,0.0,2.0,146.0,2.2,'11111222,11111222,11111222' 
TCOON,ioos:station:TCOON:057:1,2017-01-01T05:18:00Z,28.4460,-96.3961,0.0,2.3,143.0,2.5,'11111222,11111222,11111222' 
TCOON,ioos:station:TCOON:057:1,2017-01-01T05:24:00Z,28.4460,-96.3961,0.0,2.3,143.0,2.5,'1111122,1111122,1111122' 
TCOON,ioos:station:TCOON:057:1,2017-01-01T05:30:00Z,28.4460,-96.3961,0.0,2.3,141.0,2.6,'11111222,11111222,11111222' 
TCOON,ioos:station:TCOON:057:1,2017-01-01T05:36:00Z,28.4460,-96.3961,0.0,1.9,139.0,2.4,'11111222,11111222,11111222' 
TCOON,ioos:station:TCOON:057:1,2017-01-01T05:42:00Z,28.4460,-96.3961,0.0,2.0,143.0,2.4,'11111222,11111222,11111222' 
TCOON,ioos:station:TCOON:057:1,2017-01-01T05:48:00Z,28.4460,-96.3961,0.0,1.7,151.0,2.3,'11111222,11111222,11111222' 
TCOON,ioos:station:TCOON:057:1,2017-01-01T05:54:00Z,28.4460,-96.3961,0.0,1.8,162.0,2.0,'11111222,11111222,11111222' 
TCOON,ioos:station:TCOON:057:1,2017-01-01T06:00:00Z,28.4460,-96.3961,0.0,2.1,159.0,2.2,'11111222,11111222,11111222' 
TCOON,ioos:station:TCOON:057:1,2017-01-01T06:06:00Z,28.4460,-96.3961,0.0,2.1,147.0,2.2,'11111222,11111222,11111222' 
TCOON,ioos:station:TCOON:057:1,2017-01-01T06:12:00Z,28.4460,-96.3961,0.0,2.2,149.0,2.3,'11111222,11111222,11111222' 
TCOON,ioos:station:TCOON:057:1,2017-01-01T06:18:00Z,28.4460,-96.3961,0.0,2.2,149.0,2.3,'1111122,1111122,1111122' 
TCOON,ioos:station:TCOON:057:1,2017-01-01T06:24:00Z,28.4460,-96.3961,0.0,2.1,153.0,2.6,'11111222,11111222,11111222' 
TCOON,ioos:station:TCOON:057:1,2017-01-01T06:30:00Z,28.4460,-96.3961,0.0,2.3,152.0,2.5,'11111222,11111222,11111222' 
TCOON,ioos:station:TCOON:057:1,2017-01-01T06:36:00Z,28.4460,-96.3961,0.0,1.8,150.0,2.2,'11111222,11111222,11111222' 
TCOON,ioos:station:TCOON:057:1,2017-01-01T06:42:00Z,28.4460,-96.3961,0.0,1.6,146.0,1.8,'11111222,11111222,11111222' 
TCOON,ioos:station:TCOON:057:1,2017-01-01T06:48:00Z,28.4460,-96.3961,0.0,1.5,138.0,1.8,'11111222,11111222,11111222' 
TCOON,ioos:station:TCOON:057:1,2017-01-01T06:54:00Z,28.4460,-96.3961,0.0,1.8,130.0,2.1,'11111222,11111222,11111222' 
TCOON,ioos:station:TCOON:057:1,2017-01-01T07:00:00Z,28.4460,-96.3961,0.0,2.5,126.0,2.7,'11111222,11111222,11111222' 
TCOON,ioos:station:TCOON:057:1,2017-01-01T07:06:00Z,28.4460,-96.3961,0.0,3.1,124.0,3.3,'11111222,11111222,11111222' 
TCOON,ioos:station:TCOON:057:1,2017-01-01T07:12:00Z,28.4460,-96.3961,0.0,3.3,121.0,3.5,'11111222,11111222,11111222' 
TCOON,ioos:station:TCOON:057:1,2017-01-01T07:18:00Z,28.4460,-96.3961,0.0,3.3,121.0,3.5,'1111122,1111122,1111122' 
TCOON,ioos:station:TCOON:057:1,2017-01-01T07:24:00Z,28.4460,-96.3961,0.0,3.8,125.0,4.1,'11111222,11111222,11111222' 
TCOON,ioos:station:TCOON:057:1,2017-01-01T07:30:00Z,28.4460,-96.3961,0.0,3.5,120.0,3.9,'11111222,11111222,11111222' 
TCOON,ioos:station:TCOON:057:1,2017-01-01T07:36:00Z,28.4460,-96.3961,0.0,3.8,113.0,4.1,'11111222,11111222,11111222' 
TCOON,ioos:station:TCOON:057:1,2017-01-01T07:42:00Z,28.4460,-96.3961,0.0,2.7,120.0,3.8,'11111222,11111222,11111222' 
TCOON,ioos:station:TCOON:057:1,2017-01-01T07:48:00Z,28.4460,-96.3961,0.0,3.4,124.0,3.5,'11111222,11111222,11111222' 
TCOON,ioos:station:TCOON:057:1,2017-01-01T07:54:00Z,28.4460,-96.3961,0.0,3.3,119.0,3.6,'11111222,11111222,11111222' 
TCOON,ioos:station:TCOON:057:1,2017-01-01T08:00:00Z,28.4460,-96.3961,0.0,3.1,120.0,3.3,'11111222,11111222,11111222' 
TCOON,ioos:station:TCOON:057:1,2017-01-01T08:06:00Z,28.4460,-96.3961,0.0,2.6,115.0,3.2,'11111222,11111222,11111222' 
TCOON,ioos:station:TCOON:057:1,2017-01-01T08:12:00Z,28.4460,-96.3961,0.0,1.8,118.0,2.6,'11111222,11111222,11111222' 
TCOON,ioos:station:TCOON:057:1,2017-01-01T08:18:00Z,28.4460,-96.3961,0.0,1.8,118.0,2.6,'1111122,1111122,1111122' 
TCOON,ioos:station:TCOON:057:1,2017-01-01T08:24:00Z,28.4460,-96.3961,0.0,0.8,108.0,1.2,'11111222,11111222,11111222' 
TCOON,ioos:station:TCOON:057:1,2017-01-01T08:30:00Z,28.4460,-96.3961,0.0,0.3,192.0,0.8,'11111222,11111222,11111222' 
TCOON,ioos:station:TCOON:057:1,2017-01-01T08:36:00Z,28.4460,-96.3961,0.0,0.3,132.0,0.9,'11111222,11111222,11111222' 
TCOON,ioos:station:TCOON:057:1,2017-01-01T08:42:00Z,28.4460,-96.3961,0.0,1.2,100.0,1.3,'11111222,11111222,11111222' 
TCOON,ioos:station:TCOON:057:1,2017-01-01T08:48:00Z,28.4460,-96.3961,0.0,0.7,91.0,1.4,'11111222,11111222,11111222' 
TCOON,ioos:station:TCOON:057:1,2017-01-01T08:54:00Z,28.4460,-96.3961,0.0,0.2,68.0,0.6,'11111222,11111222,11111222' 
TCOON,ioos:station:TCOON:057:1,2017-01-01T09:00:00Z,28.4460,-96.3961,0.0,0.5,269.0,1.0,'11111222,11111222,11111222' 
TCOON,ioos:station:TCOON:057:1,2017-01-01T09:06:00Z,28.4460,-96.3961,0.0,0.2,272.0,0.6,'11111222,11111222,11111222' 
TCOON,ioos:station:TCOON:057:1,2017-01-01T09:12:00Z,28.4460,-96.3961,0.0,0.0,279.0,0.0,'11111222,11111222,11111222' 
TCOON,ioos:station:TCOON:057:1,2017-01-01T09:18:00Z,28.4460,-96.3961,0.0,0.3,79.0,0.6,'11111222,11111222,11111222' 
TCOON,ioos:station:TCOON:057:1,2017-01-01T09:24:00Z,28.4460,-96.3961,0.0,0.3,79.0,0.6,'1111122,1111122,1111122' 
TCOON,ioos:station:TCOON:057:1,2017-01-01T09:30:00Z,28.4460,-96.3961,0.0,0.8,92.0,1.2,'11111222,11111222,11111222' 
TCOON,ioos:station:TCOON:057:1,2017-01-01T09:36:00Z,28.4460,-96.3961,0.0,0.7,94.0,1.0,'11111222,11111222,11111222' 
TCOON,ioos:station:TCOON:057:1,2017-01-01T09:42:00Z,28.4460,-96.3961,0.0,0.1,44.0,0.8,'11111222,11111222,11111222' 
TCOON,ioos:station:TCOON:057:1,2017-01-01T09:48:00Z,28.4460,-96.3961,0.0,0.6,31.0,1.1,'11111222,11111222,11111222' 
TCOON,ioos:station:TCOON:057:1,2017-01-01T09:54:00Z,28.4460,-96.3961,0.0,0.6,31.0,0.9,'11111222,11111222,11111222' 
TCOON,ioos:station:TCOON:057:1,2017-01-01T10:00:00Z,28.4460,-96.3961,0.0,0.3,52.0,0.5,'11111222,11111222,11111222' 
TCOON,ioos:station:TCOON:057:1,2017-01-01T10:06:00Z,28.4460,-96.3961,0.0,1.0,81.0,1.3,'11111222,11111222,11111222' 
TCOON,ioos:station:TCOON:057:1,2017-01-01T10:12:00Z,28.4460,-96.3961,0.0,0.6,50.0,0.8,'11111222,11111222,11111222' 
TCOON,ioos:station:TCOON:057:1,2017-01-01T10:18:00Z,28.4460,-96.3961,0.0,0.6,50.0,0.8,'1111122,1111122,1111122' 
TCOON,ioos:station:TCOON:057:1,2017-01-01T10:24:00Z,28.4460,-96.3961,0.0,0.0,82.0,0.2,'11111222,11111222,11111222' 
TCOON,ioos:station:TCOON:057:1,2017-01-01T10:30:00Z,28.4460,-96.3961,0.0,0.5,70.0,0.7,'11111222,11111222,11111222' 
TCOON,ioos:station:TCOON:057:1,2017-01-01T10:36:00Z,28.4460,-96.3961,0.0,0.5,75.0,0.6,'11111222,11111222,11111222' 
TCOON,ioos:station:TCOON:057:1,2017-01-01T10:42:00Z,28.4460,-96.3961,0.0,0.8,93.0,0.9,'11111222,11111222,11111222' 
TCOON,ioos:station:TCOON:057:1,2017-01-01T10:48:00Z,28.4460,-96.3961,0.0,1.6,108.0,1.8,'11111222,11111222,11111222' 
TCOON,ioos:station:TCOON:057:1,2017-01-01T10:54:00Z,28.4460,-96.3961,0.0,2.6,113.0,2.7,'11111222,11111222,11111222' 
TCOON,ioos:station:TCOON:057:1,2017-01-01T11:00:00Z,28.4460,-96.3961,0.0,2.8,113.0,3.0,'11111222,11111222,11111222' 
TCOON,ioos:station:TCOON:057:1,2017-01-01T11:06:00Z,28.4460,-96.3961,0.0,3.4,125.0,3.7,'11111222,11111222,11111222' 
TCOON,ioos:station:TCOON:057:1,2017-01-01T11:12:00Z,28.4460,-96.3961,0.0,3.5,125.0,4.2,'11111222,11111222,11111222' 
TCOON,ioos:station:TCOON:057:1,2017-01-01T11:18:00Z,28.4460,-96.3961,0.0,3.5,125.0,4.2,'1111122,1111122,1111122' 
TCOON,ioos:station:TCOON:057:1,2017-01-01T11:24:00Z,28.4460,-96.3961,0.0,2.2,167.0,2.5,'11111222,11111222,11111222' 
TCOON,ioos:station:TCOON:057:1,2017-01-01T11:30:00Z,28.4460,-96.3961,0.0,1.9,197.0,2.8,'11111222,11111222,11111222' 
TCOON,ioos:station:TCOON:057:1,2017-01-01T11:36:00Z,28.4460,-96.3961,0.0,2.1,171.0,2.4,'11111222,11111222,11111222' 
TCOON,ioos:station:TCOON:057:1,2017-01-01T11:42:00Z,28.4460,-96.3961,0.0,1.5,176.0,2.4,'11111222,11111222,11111222' 
TCOON,ioos:station:TCOON:057:1,2017-01-01T11:48:00Z,28.4460,-96.3961,0.0,2.3,186.0,2.7,'11111222,11111222,11111222' 
TCOON,ioos:station:TCOON:057:1,2017-01-01T11:54:00Z,28.4460,-96.3961,0.0,3.0,166.0,3.2,'11111222,11111222,11111222' 
TCOON,ioos:station:TCOON:057:1,2017-01-01T12:00:00Z,28.4460,-96.3961,0.0,4.1,170.0,4.3,'11111222,11111222,11111222' 
TCOON,ioos:station:TCOON:057:1,2017-01-01T12:06:00Z,28.4460,-96.3961,0.0,4.1,171.0,4.9,'11111222,11111222,11111222' 
TCOON,ioos:station:TCOON:057:1,2017-01-01T12:12:00Z,28.4460,-96.3961,0.0,3.2,165.0,4.2,'11111222,11111222,11111222' 
TCOON,ioos:station:TCOON:057:1,2017-01-01T12:18:00Z,28.4460,-96.3961,0.0,3.2,165.0,4.2,'1111122,1111122,1111122' 
TCOON,ioos:station:TCOON:057:1,2017-01-01T12:24:00Z,28.4460,-96.3961,0.0,2.9,175.0,3.9,'11111222,11111222,11111222' 
TCOON,ioos:station:TCOON:057:1,2017-01-01T12:30:00Z,28.4460,-96.3961,0.0,3.0,197.0,4.4,'11111222,11111222,11111222' 
TCOON,ioos:station:TCOON:057:1,2017-01-01T12:36:00Z,28.4460,-96.3961,0.0,3.8,185.0,4.6,'11111222,11111222,11111222' 
TCOON,ioos:station:TCOON:057:1,2017-01-01T12:42:00Z,28.4460,-96.3961,0.0,3.2,204.0,4.4,'11111222,11111222,11111222' 
TCOON,ioos:station:TCOON:057:1,2017-01-01T12:48:00Z,28.4460,-96.3961,0.0,4.6,215.0,5.5,'11111222,11111222,11111222' 
TCOON,ioos:station:TCOON:057:1,2017-01-01T12:54:00Z,28.4460,-96.3961,0.0,5.5,209.0,5.9,'11111222,11111222,11111222' 
TCOON,ioos:station:TCOON:057:1,2017-01-01T13:00:00Z,28.4460,-96.3961,0.0,5.1,199.0,6.0,'11111222,11111222,11111222' 
TCOON,ioos:station:TCOON:057:1,2017-01-01T13:06:00Z,28.4460,-96.3961,0.0,5.7,189.0,6.9,'11111222,11111222,11111222' 
TCOON,ioos:station:TCOON:057:1,2017-01-01T13:12:00Z,28.4460,-96.3961,0.0,5.9,189.0,6.8,'11111222,11111222,11111222' 
TCOON,ioos:station:TCOON:057:1,2017-01-01T13:18:00Z,28.4460,-96.3961,0.0,5.9,189.0,6.8,'1111122,1111122,1111122' 
TCOON,ioos:station:TCOON:057:1,2017-01-01T13:24:00Z,28.4460,-96.3961,0.0,5.6,193.0,6.6,'11111222,11111222,11111222' 
TCOON,ioos:station:TCOON:057:1,2017-01-01T13:30:00Z,28.4460,-96.3961,0.0,6.3,185.0,6.9,'11111222,11111222,11111222' 
TCOON,ioos:station:TCOON:057:1,2017-01-01T13:36:00Z,28.4460,-96.3961,0.0,6.5,185.0,7.6,'11111222,11111222,11111222' 
TCOON,ioos:station:TCOON:057:1,2017-01-01T13:42:00Z,28.4460,-96.3961,0.0,5.5,183.0,7.0,'11111222,11111222,11111222' 
TCOON,ioos:station:TCOON:057:1,2017-01-01T13:48:00Z,28.4460,-96.3961,0.0,5.8,174.0,6.7,'11111222,11111222,11111222' 
TCOON,ioos:station:TCOON:057:1,2017-01-01T13:54:00Z,28.4460,-96.3961,0.0,6.8,166.0,7.8,'11111222,11111222,11111222' 
TCOON,ioos:station:TCOON:057:1,2017-01-01T14:00:00Z,28.4460,-96.3961,0.0,8.4,169.0,9.2,'11111222,11111222,11111222' 
TCOON,ioos:station:TCOON:057:1,2017-01-01T14:06:00Z,28.4460,-96.3961,0.0,7.9,158.0,9.0,'11111222,11111222,11111222' 
TCOON,ioos:station:TCOON:057:1,2017-01-01T14:12:00Z,28.4460,-96.3961,0.0,8.1,151.0,9.4,'11111222,11111222,11111222' 
TCOON,ioos:station:TCOON:057:1,2017-01-01T14:18:00Z,28.4460,-96.3961,0.0,9.5,161.0,10.6,'11111222,11111222,11111222' 
TCOON,ioos:station:TCOON:057:1,2017-01-01T14:24:00Z,28.4460,-96.3961,0.0,9.5,161.0,10.6,'1111122,1111122,1111122' 
TCOON,ioos:station:TCOON:057:1,2017-01-01T14:30:00Z,28.4460,-96.3961,0.0,6.2,154.0,8.2,'11111222,11111222,11111222' 
TCOON,ioos:station:TCOON:057:1,2017-01-01T14:36:00Z,28.4460,-96.3961,0.0,8.8,156.0,9.3,'11111222,11111222,11111222' 
TCOON,ioos:station:TCOON:057:1,2017-01-01T14:42:00Z,28.4460,-96.3961,0.0,6.0,169.0,9.3,'11111222,11111222,11111222' 
TCOON,ioos:station:TCOON:057:1,2017-01-01T14:48:00Z,28.4460,-96.3961,0.0,11.4,320.0,15.0,'11111222,11111222,11111222' 
TCOON,ioos:station:TCOON:057:1,2017-01-01T14:54:00Z,28.4460,-96.3961,0.0,1.4,84.0,14.1,'11111222,11111222,11111222' 
TCOON,ioos:station:TCOON:057:1,2017-01-01T15:00:00Z,28.4460,-96.3961,0.0,4.6,161.0,6.7,'11111222,11111222,11111222' 
TCOON,ioos:station:TCOON:057:1,2017-01-01T15:06:00Z,28.4460,-96.3961,0.0,5.8,167.0,7.0,'11111222,11111222,11111222' 
TCOON,ioos:station:TCOON:057:1,2017-01-01T15:12:00Z,28.4460,-96.3961,0.0,3.7,210.0,6.0,'11111222,11111222,11111222' 
TCOON,ioos:station:TCOON:057:1,2017-01-01T15:18:00Z,28.4460,-96.3961,0.0,3.7,210.0,6.0,'1111122,1111122,1111122' 
TCOON,ioos:station:TCOON:057:1,2017-01-01T15:24:00Z,28.4460,-96.3961,0.0,2.4,276.0,3.6,'11111222,11111222,11111222' 
TCOON,ioos:station:TCOON:057:1,2017-01-01T15:30:00Z,28.4460,-96.3961,0.0,2.1,275.0,2.4,'11111222,11111222,11111222' 
TCOON,ioos:station:TCOON:057:1,2017-01-01T15:36:00Z,28.4460,-96.3961,0.0,3.9,325.0,4.2,'11111222,11111222,11111222' 
TCOON,ioos:station:TCOON:057:1,2017-01-01T15:42:00Z,28.4460,-96.3961,0.0,2.8,340.0,3.7,'11111222,11111222,11111222' 
TCOON,ioos:station:TCOON:057:1,2017-01-01T15:48:00Z,28.4460,-96.3961,0.0,2.4,324.0,3.0,'11111222,11111222,11111222' 
TCOON,ioos:station:TCOON:057:1,2017-01-01T15:54:00Z,28.4460,-96.3961,0.0,2.5,332.0,3.1,'11111222,11111222,11111222' 
TCOON,ioos:station:TCOON:057:1,2017-01-01T16:00:00Z,28.4460,-96.3961,0.0,2.6,1.0,3.0,'11111222,11111222,11111222' 
TCOON,ioos:station:TCOON:057:1,2017-01-01T16:06:00Z,28.4460,-96.3961,0.0,3.1,15.0,3.5,'11111222,11111222,11111222' 
TCOON,ioos:station:TCOON:057:1,2017-01-01T16:12:00Z,28.4460,-96.3961,0.0,3.1,16.0,3.8,'11111222,11111222,11111222' 
TCOON,ioos:station:TCOON:057:1,2017-01-01T16:18:00Z,28.4460,-96.3961,0.0,3.1,16.0,3.8,'1111122,1111122,1111122' 
TCOON,ioos:station:TCOON:057:1,2017-01-01T16:24:00Z,28.4460,-96.3961,0.0,2.7,7.0,3.7,'11111222,11111222,11111222' 
TCOON,ioos:station:TCOON:057:1,2017-01-01T16:30:00Z,28.4460,-96.3961,0.0,3.8,7.0,4.1,'11111222,11111222,11111222' 
TCOON,ioos:station:TCOON:057:1,2017-01-01T16:36:00Z,28.4460,-96.3961,0.0,3.2,18.0,4.2,'11111222,11111222,11111222' 
TCOON,ioos:station:TCOON:057:1,2017-01-01T16:42:00Z,28.4460,-96.3961,0.0,3.5,14.0,4.1,'11111222,11111222,11111222' 
TCOON,ioos:station:TCOON:057:1,2017-01-01T16:48:00Z,28.4460,-96.3961,0.0,3.9,13.0,4.3,'11111222,11111222,11111222' 
TCOON,ioos:station:TCOON:057:1,2017-01-01T16:54:00Z,28.4460,-96.3961,0.0,4.1,2.0,4.3,'11111222,11111222,11111222' 
TCOON,ioos:station:TCOON:057:1,2017-01-01T17:00:00Z,28.4460,-96.3961,0.0,4.1,358.0,4.6,'11111222,11111222,11111222' 
TCOON,ioos:station:TCOON:057:1,2017-01-01T17:06:00Z,28.4460,-96.3961,0.0,4.8,2.0,5.2,'11111222,11111222,11111222' 
TCOON,ioos:station:TCOON:057:1,2017-01-01T17:12:00Z,28.4460,-96.3961,0.0,4.9,359.0,5.3,'11111222,11111222,11111222' 
TCOON,ioos:station:TCOON:057:1,2017-01-01T17:18:00Z,28.4460,-96.3961,0.0,4.9,359.0,5.3,'1111122,1111122,1111122' 
TCOON,ioos:station:TCOON:057:1,2017-01-01T17:24:00Z,28.4460,-96.3961,0.0,4.4,2.0,4.9,'11111222,11111222,11111222' 
TCOON,ioos:station:TCOON:057:1,2017-01-01T17:30:00Z,28.4460,-96.3961,0.0,4.3,352.0,5.0,'11111222,11111222,11111222' 
TCOON,ioos:station:TCOON:057:1,2017-01-01T17:36:00Z,28.4460,-96.3961,0.0,3.7,0.0,4.3,'11111222,11111222,11111222' 
TCOON,ioos:station:TCOON:057:1,2017-01-01T17:42:00Z,28.4460,-96.3961,0.0,3.4,3.0,4.0,'11111222,11111222,11111222' 
TCOON,ioos:station:TCOON:057:1,2017-01-01T17:48:00Z,28.4460,-96.3961,0.0,2.7,360.0,3.4,'11111222,11144222,11111222' 
TCOON,ioos:station:TCOON:057:1,2017-01-01T17:54:00Z,28.4460,-96.3961,0.0,2.3,1.0,2.8,'11111222,11111222,11111222' 
TCOON,ioos:station:TCOON:057:1,2017-01-01T18:00:00Z,28.4460,-96.3961,0.0,1.7,10.0,2.6,'11111222,11111222,11111222' 
TCOON,ioos:station:TCOON:057:1,2017-01-01T18:06:00Z,28.4460,-96.3961,0.0,0.6,15.0,1.5,'11111222,11111222,11111222' 
TCOON,ioos:station:TCOON:057:1,2017-01-01T18:12:00Z,28.4460,-96.3961,0.0,0.0,28.0,0.2,'11111222,11111222,11111222' 
TCOON,ioos:station:TCOON:057:1,2017-01-01T18:18:00Z,28.4460,-96.3961,0.0,0.0,17.0,0.0,'11111222,11111222,11111222' 
TCOON,ioos:station:TCOON:057:1,2017-01-01T18:24:00Z,28.4460,-96.3961,0.0,0.0,17.0,0.0,'1114422,1111122,1114422' 
TCOON,ioos:station:TCOON:057:1,2017-01-01T18:30:00Z,28.4460,-96.3961,0.0,1.5,279.0,1.6,'11111222,11111222,11111222' 
TCOON,ioos:station:TCOON:057:1,2017-01-01T18:36:00Z,28.4460,-96.3961,0.0,1.4,284.0,1.9,'11111222,11111222,11111222' 
TCOON,ioos:station:TCOON:057:1,2017-01-01T18:42:00Z,28.4460,-96.3961,0.0,0.9,352.0,1.2,'11111222,11111222,11111222' 
TCOON,ioos:station:TCOON:057:1,2017-01-01T18:48:00Z,28.4460,-96.3961,0.0,1.6,354.0,1.9,'11111222,11111222,11111222' 
TCOON,ioos:station:TCOON:057:1,2017-01-01T18:54:00Z,28.4460,-96.3961,0.0,1.3,324.0,1.7,'11111222,11111222,11111222' 
TCOON,ioos:station:TCOON:057:1,2017-01-01T19:00:00Z,28.4460,-96.3961,0.0,0.4,325.0,1.2,'11111222,11111222,11111222' 
TCOON,ioos:station:TCOON:057:1,2017-01-01T19:06:00Z,28.4460,-96.3961,0.0,1.2,3.0,1.4,'11111222,11111222,11111222' 
TCOON,ioos:station:TCOON:057:1,2017-01-01T19:12:00Z,28.4460,-96.3961,0.0,1.4,25.0,1.6,'11111222,11111222,11111222' 
TCOON,ioos:station:TCOON:057:1,2017-01-01T19:18:00Z,28.4460,-96.3961,0.0,1.4,25.0,1.6,'1111122,1111122,1111122' 
TCOON,ioos:station:TCOON:057:1,2017-01-01T19:24:00Z,28.4460,-96.3961,0.0,1.2,16.0,1.7,'11111222,11111222,11111222' 
TCOON,ioos:station:TCOON:057:1,2017-01-01T19:30:00Z,28.4460,-96.3961,0.0,0.9,7.0,1.1,'11111222,11111222,11111222' 
TCOON,ioos:station:TCOON:057:1,2017-01-01T19:36:00Z,28.4460,-96.3961,0.0,0.2,108.0,0.9,'11111222,11111222,11111222' 
TCOON,ioos:station:TCOON:057:1,2017-01-01T19:42:00Z,28.4460,-96.3961,0.0,0.7,73.0,0.9,'11111222,11111222,11111222' 
TCOON,ioos:station:TCOON:057:1,2017-01-01T19:48:00Z,28.4460,-96.3961,0.0,0.8,50.0,0.9,'11111222,11111222,11111222' 
TCOON,ioos:station:TCOON:057:1,2017-01-01T19:54:00Z,28.4460,-96.3961,0.0,1.1,49.0,1.2,'11111222,11111222,11111222' 
TCOON,ioos:station:TCOON:057:1,2017-01-01T20:00:00Z,28.4460,-96.3961,0.0,1.1,67.0,1.4,'11111222,11111222,11111222' 
TCOON,ioos:station:TCOON:057:1,2017-01-01T20:06:00Z,28.4460,-96.3961,0.0,0.8,99.0,1.2,'11111222,11111222,11111222' 
TCOON,ioos:station:TCOON:057:1,2017-01-01T20:12:00Z,28.4460,-96.3961,0.0,0.6,95.0,0.9,'11111222,11111222,11111222' 
TCOON,ioos:station:TCOON:057:1,2017-01-01T20:18:00Z,28.4460,-96.3961,0.0,0.6,95.0,0.9,'1111122,1111122,1111122' 
TCOON,ioos:station:TCOON:057:1,2017-01-01T20:24:00Z,28.4460,-96.3961,0.0,0.6,117.0,0.9,'11111222,11111222,11111222' 
TCOON,ioos:station:TCOON:057:1,2017-01-01T20:30:00Z,28.4460,-96.3961,0.0,1.3,113.0,1.5,'11111222,11111222,11111222' 